Terminal Aerodrome Forecast
Issued by NWS

Home | Current Version | Previous Version | Text Only | Print | Product List | Glossary On
Versions: 1 2 3 4 5 6 7 8 9 10 11 12 13 14
000
FTUS42 KMLB 250540
TAFTIX
TAF
KTIX 250540Z 2506/2606 17005KT P6SM SCT120 SCT250
     FM251300 15007KT P6SM FEW020 SCT250
     FM251800 12012KT P6SM VCSH SCT040 SCT100 SCT250
     FM260200 17006KT P6SM FEW040 SCT100 SCT250
      AMD NOT SKED TIL 251100=

USA.gov is the U.S. government's official web portal to all federal, state and local government web resources and services.